Location: Ffm
(50.0000°N, 8.5000°E)
Time: 10:09:04
(UTC+01:00)

Envisat - Pass Details

Date: 04 November 2020
Orbit: 764 x 766 km, 98.1° (Epoch: 03 December)

Event Time Altitude Azimuth Distance (km) Brightness Sun altitude
Rises 17:39:07 0° 173° (S) 3,219 6.4 -7.2°
Reaches altitude 10° 17:41:26 10° 177° (S) 2,298 5.6 -7.5°
Maximum altitude 17:46:28 63° 258° (WSW) 854 3.6 -8.3°
Drops below altitude 10° 17:51:32 10° 340° (NNW) 2,314 5.6 -9.1°
Sets 17:53:53 0° 344° (NNW) 3,244 6.3 -9.5°
